Вернуться в каталог

STARLINK-38165

АктивенСвязьSSO
NORAD 100191·PAYLOAD·🇺🇸 United States

Запущен Aug 1, 2026 с Vandenberg Space Force Base

Loading…

Ближайшие Пролёты (ближайшие 24 часа)

TLE

СвежийSource: Space-Track

Эпоха: Sep 14, 2026, 07:15 UTC

1 A0191U 26175N   26257.30256367  .00118868  00000-0  78583-3 0  9992
2 A0191  97.2836  99.4785 0002118  73.2407 286.9091 15.75216432  8206

Отслеживайте STARLINK-38165 в реальном времени с AllMySat

Download on the App Store